FDB336 OPKC-OMDB

Flight info

Callsign FDB336
Flight time N/A
Altitude 38000
Route MELOM A454 PASOV B540 KUPMA/N0392F240 B540 MIVEK P574 IMPED
Aircraft A20N/M-SDE2E3FGHIRWXY/LB1

Departure

Time N/A
Airport Jinnah International Airport (OPKC)

Arrival

Time 2026-05-07 09:53
Airport Dubai International Airport (OMDB)
Time Latitude Longitude Altitude Speed Heading
2026-05-07 08:34 24.75142 64.23728 30265 ft 470 kts 265°
2026-05-07 08:34 24.74745 64.20160 30453 ft 469 kts 265°
2026-05-07 08:34 24.74349 64.16604 30647 ft 469 kts 265°
2026-05-07 08:34 24.73952 64.13055 30854 ft 468 kts 265°
2026-05-07 08:35 24.73554 64.09500 31062 ft 467 kts 265°
2026-05-07 08:35 24.73157 64.05956 31270 ft 466 kts 265°
2026-05-07 08:35 24.72760 64.02423 31463 ft 465 kts 265°
2026-05-07 08:35 24.72362 63.98893 31673 ft 465 kts 265°
2026-05-07 08:36 24.71964 63.95364 31872 ft 464 kts 265°
2026-05-07 08:36 24.71565 63.91843 32065 ft 463 kts 265°
2026-05-07 08:36 24.71167 63.88334 32251 ft 463 kts 265°
2026-05-07 08:36 24.70768 63.84819 32440 ft 462 kts 265°
2026-05-07 08:37 24.70369 63.81316 32626 ft 462 kts 264°
2026-05-07 08:37 24.69974 63.77853 32803 ft 461 kts 264°
2026-05-07 08:37 24.69574 63.74353 32984 ft 461 kts 264°
2026-05-07 08:37 24.69168 63.70814 33162 ft 460 kts 264°
2026-05-07 08:38 24.68773 63.67371 33334 ft 460 kts 264°
2026-05-07 08:38 24.68367 63.63840 33503 ft 459 kts 264°
2026-05-07 08:38 24.67970 63.60401 33662 ft 459 kts 264°
2026-05-07 08:38 24.67568 63.56915 33816 ft 459 kts 264°
2026-05-07 08:39 24.67165 63.53438 33959 ft 458 kts 264°
2026-05-07 08:39 24.66762 63.49961 34097 ft 458 kts 264°
2026-05-07 08:39 24.66358 63.46484 34234 ft 457 kts 264°
2026-05-07 08:39 24.65954 63.43023 34371 ft 457 kts 264°
2026-05-07 08:40 24.65549 63.39548 34502 ft 457 kts 264°
2026-05-07 08:40 24.65145 63.36095 34631 ft 456 kts 264°
2026-05-07 08:40 24.64740 63.32637 34757 ft 456 kts 264°
2026-05-07 08:40 24.64334 63.29179 34883 ft 455 kts 264°
2026-05-07 08:41 24.63928 63.25729 35012 ft 455 kts 264°
2026-05-07 08:41 24.63521 63.22283 35146 ft 455 kts 264°
2026-05-07 08:41 24.63114 63.18830 35275 ft 454 kts 264°
2026-05-07 08:41 24.62707 63.15392 35407 ft 454 kts 264°
2026-05-07 08:42 24.62298 63.11951 35544 ft 454 kts 264°
2026-05-07 08:42 24.61890 63.08514 35679 ft 453 kts 264°
2026-05-07 08:42 24.61487 63.05126 35821 ft 453 kts 264°
2026-05-07 08:42 24.61078 63.01697 35959 ft 452 kts 264°
2026-05-07 08:43 24.60668 62.98271 36095 ft 452 kts 264°
2026-05-07 08:43 24.60259 62.94854 36237 ft 451 kts 263°
2026-05-07 08:43 24.59849 62.91442 36383 ft 451 kts 263°
2026-05-07 08:43 24.59437 62.88012 36522 ft 451 kts 263°
2026-05-07 08:44 24.59026 62.84601 36660 ft 450 kts 263°
2026-05-07 08:44 24.58616 62.81203 36799 ft 450 kts 263°
2026-05-07 08:44 24.58203 62.77793 36917 ft 449 kts 263°
2026-05-07 08:44 24.57942 62.74380 37041 ft 448 kts 270°
2026-05-07 08:45 24.57903 62.70961 37160 ft 448 kts 269°
2026-05-07 08:45 24.57854 62.67534 37279 ft 448 kts 269°
2026-05-07 08:45 24.57809 62.64120 37396 ft 447 kts 270°
2026-05-07 08:45 24.57769 62.60699 37519 ft 447 kts 270°
2026-05-07 08:46 24.57732 62.57290 37633 ft 446 kts 270°
2026-05-07 08:46 24.57696 62.53882 37738 ft 446 kts 270°
2026-05-07 08:46 24.57662 62.50515 37843 ft 446 kts 270°
2026-05-07 08:46 24.57626 62.47121 37951 ft 445 kts 269°
2026-05-07 08:47 24.57589 62.43709 38056 ft 445 kts 269°
2026-05-07 08:47 24.57551 62.40308 38154 ft 445 kts 269°
2026-05-07 08:47 24.57470 62.33502 38344 ft 444 kts 269°
2026-05-07 08:48 24.57387 62.26723 38510 ft 444 kts 269°
2026-05-07 08:48 24.57301 62.19940 38648 ft 443 kts 269°
2026-05-07 08:49 24.57212 62.13209 38767 ft 443 kts 269°
2026-05-07 08:49 24.57120 62.06422 38791 ft 446 kts 269°
2026-05-07 08:50 24.57023 61.99597 38785 ft 447 kts 269°
2026-05-07 08:50 24.56924 61.92748 38786 ft 449 kts 269°
2026-05-07 08:51 24.56821 61.85888 38788 ft 449 kts 269°
2026-05-07 08:51 24.56715 61.79008 38791 ft 450 kts 269°
2026-05-07 08:52 24.56606 61.72176 38786 ft 450 kts 269°
2026-05-07 08:52 24.56494 61.65288 38787 ft 451 kts 269°
2026-05-07 08:53 24.56378 61.58403 38785 ft 451 kts 269°
2026-05-07 08:53 24.56280 61.52672 38787 ft 451 kts 269°
2026-05-07 08:54 24.56158 61.45774 38791 ft 451 kts 269°
2026-05-07 08:54 24.56033 61.38876 38789 ft 451 kts 269°
2026-05-07 08:55 24.55905 61.31979 38789 ft 451 kts 269°
2026-05-07 08:55 24.55774 61.25085 38790 ft 451 kts 269°
2026-05-07 08:56 24.55640 61.18182 38790 ft 452 kts 269°
2026-05-07 08:56 24.55503 61.11286 38793 ft 452 kts 269°
2026-05-07 08:57 24.55362 61.04393 38794 ft 452 kts 269°
2026-05-07 08:57 24.55218 60.97488 38797 ft 452 kts 269°
2026-05-07 08:58 24.55072 60.90629 38794 ft 452 kts 269°
2026-05-07 08:58 24.54922 60.83723 38796 ft 452 kts 268°
2026-05-07 08:59 24.54770 60.76900 38795 ft 439 kts 268°
2026-05-07 08:59 24.54620 60.70275 38801 ft 431 kts 268°
2026-05-07 09:00 24.54468 60.63687 38800 ft 430 kts 268°
2026-05-07 09:00 24.54315 60.57180 38801 ft 428 kts 268°
2026-05-07 09:01 24.54159 60.50647 38800 ft 427 kts 268°
2026-05-07 09:01 24.54000 60.44142 38798 ft 426 kts 268°
2026-05-07 09:02 24.53839 60.37646 38802 ft 425 kts 268°
2026-05-07 09:02 24.53676 60.31161 38801 ft 424 kts 268°
2026-05-07 09:03 24.53511 60.24745 38801 ft 423 kts 268°
2026-05-07 09:03 24.53343 60.18287 38798 ft 422 kts 268°
2026-05-07 09:04 24.53172 60.11856 38803 ft 421 kts 268°
2026-05-07 09:04 24.53000 60.05442 38809 ft 420 kts 268°
2026-05-07 09:05 24.52824 59.99025 38807 ft 419 kts 268°
2026-05-07 09:05 24.52647 59.92626 38810 ft 419 kts 268°
2026-05-07 09:06 24.52468 59.86272 38806 ft 418 kts 268°
2026-05-07 09:06 24.52285 59.79890 38804 ft 418 kts 268°
2026-05-07 09:07 24.52100 59.73521 38806 ft 417 kts 268°
2026-05-07 09:07 24.51912 59.67151 38809 ft 417 kts 268°
2026-05-07 09:08 24.51723 59.60794 38808 ft 416 kts 268°
2026-05-07 09:08 24.51531 59.54482 38803 ft 416 kts 268°
2026-05-07 09:09 24.51337 59.48138 38805 ft 415 kts 268°
2026-05-07 09:09 24.51139 59.41798 38806 ft 415 kts 268°
2026-05-07 09:10 24.50940 59.35468 38807 ft 415 kts 268°
2026-05-07 09:10 24.50737 59.29127 38806 ft 414 kts 268°
2026-05-07 09:11 24.50532 59.22797 38810 ft 414 kts 268°
2026-05-07 09:11 24.50325 59.16477 38807 ft 414 kts 267°
2026-05-07 09:12 24.50115 59.10162 38810 ft 414 kts 267°
2026-05-07 09:12 24.49903 59.03845 38808 ft 413 kts 267°
2026-05-07 09:13 24.49689 58.97579 38811 ft 413 kts 267°
2026-05-07 09:13 24.49472 58.91265 38810 ft 413 kts 267°
2026-05-07 09:14 24.49252 58.84957 38813 ft 413 kts 267°
2026-05-07 09:14 24.49029 58.78655 38808 ft 413 kts 267°
2026-05-07 09:15 24.48805 58.72355 38808 ft 413 kts 267°
2026-05-07 09:15 24.48577 58.66061 38809 ft 413 kts 267°
2026-05-07 09:16 24.48349 58.59804 38810 ft 412 kts 267°
2026-05-07 09:16 24.48116 58.53509 38809 ft 412 kts 267°
2026-05-07 09:17 24.47881 58.47219 38808 ft 412 kts 267°
2026-05-07 09:17 24.47644 58.40937 38806 ft 412 kts 267°
2026-05-07 09:18 24.47403 58.34648 38810 ft 412 kts 267°
2026-05-07 09:18 24.47162 58.28395 38811 ft 412 kts 267°
2026-05-07 09:19 24.46917 58.22112 38811 ft 412 kts 267°
2026-05-07 09:19 24.46669 58.15820 38811 ft 412 kts 267°
2026-05-07 09:20 24.46419 58.09542 38810 ft 412 kts 267°
2026-05-07 09:20 24.46165 58.03258 38809 ft 412 kts 267°
2026-05-07 09:21 24.45910 57.96973 38807 ft 412 kts 267°
2026-05-07 09:21 24.45653 57.90727 38808 ft 412 kts 266°
2026-05-07 09:22 24.45392 57.84442 38807 ft 412 kts 266°
2026-05-07 09:22 24.45129 57.78160 38804 ft 412 kts 266°
2026-05-07 09:23 24.44863 57.71877 38804 ft 412 kts 266°
2026-05-07 09:23 24.44596 57.65591 38804 ft 412 kts 266°
2026-05-07 09:24 24.44331 57.59387 38584 ft 404 kts 266°
2026-05-07 09:24 24.44199 57.56313 38026 ft 401 kts 266°
2026-05-07 09:24 24.44194 57.53265 37491 ft 399 kts 273°
2026-05-07 09:25 24.44538 57.50245 36920 ft 398 kts 279°
2026-05-07 09:25 24.45210 57.47305 36376 ft 397 kts 285°
2026-05-07 09:25 24.46100 57.44432 35850 ft 395 kts 287°
2026-05-07 09:25 24.46983 57.41586 35311 ft 393 kts 286°
2026-05-07 09:26 24.47859 57.38743 34775 ft 392 kts 286°
2026-05-07 09:26 24.48716 57.35956 34280 ft 390 kts 286°
2026-05-07 09:26 24.49582 57.33132 33707 ft 390 kts 286°
2026-05-07 09:26 24.50446 57.30319 33163 ft 388 kts 286°
2026-05-07 09:27 24.51307 57.27510 32561 ft 387 kts 286°
2026-05-07 09:27 24.52166 57.24712 32033 ft 385 kts 286°
2026-05-07 09:27 24.53873 57.19141 30941 ft 383 kts 286°
2026-05-07 09:28 24.54723 57.16363 30369 ft 383 kts 287°
2026-05-07 09:28 24.55572 57.13590 29886 ft 381 kts 287°
2026-05-07 09:28 24.56412 57.10841 29342 ft 378 kts 287°
2026-05-07 09:28 24.57246 57.08111 28810 ft 375 kts 287°
2026-05-07 09:29 24.58063 57.05435 28305 ft 373 kts 287°
2026-05-07 09:29 24.58884 57.02741 27775 ft 371 kts 287°
2026-05-07 09:29 24.59700 57.00065 27265 ft 368 kts 287°
2026-05-07 09:29 24.60511 56.97401 26757 ft 366 kts 287°
2026-05-07 09:30 24.61318 56.94751 26270 ft 364 kts 287°
2026-05-07 09:30 24.62118 56.92120 25784 ft 363 kts 287°
2026-05-07 09:30 24.62916 56.89494 25310 ft 361 kts 287°
2026-05-07 09:30 24.63709 56.86883 24842 ft 359 kts 287°
2026-05-07 09:31 24.64603 56.84324 24368 ft 358 kts 294°
2026-05-07 09:31 24.65802 56.81929 23931 ft 357 kts 300°
2026-05-07 09:31 24.67103 56.79605 23483 ft 356 kts 300°
2026-05-07 09:31 24.68392 56.77279 22993 ft 354 kts 300°
2026-05-07 09:32 24.69664 56.74973 22520 ft 352 kts 300°
2026-05-07 09:32 24.70927 56.72680 22039 ft 350 kts 300°
2026-05-07 09:32 24.72185 56.70398 21579 ft 347 kts 300°
2026-05-07 09:32 24.73430 56.68138 21141 ft 345 kts 301°
2026-05-07 09:33 24.74671 56.65886 20691 ft 343 kts 301°
2026-05-07 09:33 24.75904 56.63647 20260 ft 341 kts 301°
2026-05-07 09:33 24.77125 56.61428 19832 ft 339 kts 301°
2026-05-07 09:33 24.78331 56.59235 19397 ft 338 kts 301°
2026-05-07 09:34 24.79543 56.57031 18975 ft 336 kts 301°
2026-05-07 09:34 24.80753 56.54828 18569 ft 335 kts 301°
2026-05-07 09:34 24.81956 56.52638 18141 ft 334 kts 301°
2026-05-07 09:34 24.83154 56.50457 17670 ft 333 kts 301°
2026-05-07 09:35 24.84349 56.48280 17183 ft 332 kts 301°
2026-05-07 09:35 24.85547 56.46098 16707 ft 332 kts 301°
2026-05-07 09:35 24.86739 56.43925 16251 ft 331 kts 301°
2026-05-07 09:35 24.87851 56.41703 15775 ft 331 kts 292°
2026-05-07 09:36 24.88418 56.39253 15315 ft 331 kts 275°
2026-05-07 09:36 24.88390 56.36726 14859 ft 331 kts 265°
2026-05-07 09:36 24.88244 56.34194 14424 ft 331 kts 265°
2026-05-07 09:36 24.88106 56.31703 14001 ft 331 kts 265°
2026-05-07 09:37 24.87969 56.29166 13602 ft 330 kts 265°
2026-05-07 09:37 24.87927 56.26647 13165 ft 329 kts 275°
2026-05-07 09:37 24.88465 56.24210 12757 ft 327 kts 292°
2026-05-07 09:37 24.89529 56.22012 12373 ft 324 kts 300°
2026-05-07 09:38 24.90652 56.19868 11998 ft 321 kts 300°
2026-05-07 09:38 24.91757 56.17734 11623 ft 318 kts 300°
2026-05-07 09:38 24.92831 56.15650 11270 ft 316 kts 299°
2026-05-07 09:38 24.93907 56.13556 10906 ft 313 kts 299°
2026-05-07 09:39 24.94975 56.11476 10541 ft 310 kts 299°
2026-05-07 09:39 24.96031 56.09420 10179 ft 307 kts 299°
2026-05-07 09:39 24.97094 56.07390 9823 ft 305 kts 302°
2026-05-07 09:39 24.98389 56.05547 9442 ft 303 kts 312°
2026-05-07 09:40 24.99806 56.03848 9102 ft 299 kts 312°
2026-05-07 09:40 25.01198 56.02154 8743 ft 296 kts 312°
2026-05-07 09:40 25.02569 56.00477 8384 ft 292 kts 312°
2026-05-07 09:40 25.03923 55.98818 8033 ft 289 kts 312°
2026-05-07 09:41 25.05241 55.97202 7696 ft 285 kts 312°
2026-05-07 09:41 25.06563 55.95582 7357 ft 282 kts 312°
2026-05-07 09:41 25.07867 55.93981 7032 ft 278 kts 312°
2026-05-07 09:41 25.09155 55.92400 6689 ft 276 kts 312°
2026-05-07 09:42 25.10001 55.91359 6477 ft 274 kts 312°
2026-05-07 09:42 25.11020 55.89629 6216 ft 267 kts 290°
2026-05-07 09:42 25.11275 55.87610 5878 ft 266 kts 272°
2026-05-07 09:42 25.11300 55.85588 5583 ft 262 kts 272°
2026-05-07 09:43 25.11347 55.83587 5261 ft 258 kts 272°
2026-05-07 09:43 25.11351 55.83448 5245 ft 258 kts 272°
2026-05-07 09:44 25.11374 55.82615 5080 ft 258 kts 272°
2026-05-07 09:44 25.11416 55.81323 4899 ft 255 kts 272°
2026-05-07 09:44 25.11477 55.79375 4569 ft 254 kts 267°
2026-05-07 09:44 25.11357 55.77439 4236 ft 252 kts 264°
2026-05-07 09:45 25.11195 55.75523 3931 ft 250 kts 263°
2026-05-07 09:45 25.11030 55.73610 3545 ft 251 kts 263°
2026-05-07 09:45 25.10867 55.71709 3245 ft 247 kts 263°
2026-05-07 09:45 25.10715 55.69865 3119 ft 241 kts 264°
2026-05-07 09:46 25.10573 55.68066 3024 ft 230 kts 264°
2026-05-07 09:46 25.10437 55.66357 2990 ft 217 kts 264°
2026-05-07 09:46 25.10315 55.64761 2985 ft 201 kts 264°
2026-05-07 09:46 25.10466 55.63281 2997 ft 191 kts 285°
2026-05-07 09:47 25.11067 55.62023 2988 ft 179 kts 298°
2026-05-07 09:47 25.11712 55.60903 3003 ft 169 kts 297°
2026-05-07 09:47 25.12313 55.59832 2990 ft 159 kts 295°
2026-05-07 09:47 25.12883 55.58804 2992 ft 158 kts 296°
2026-05-07 09:48 25.13463 55.57750 3010 ft 164 kts 296°
2026-05-07 09:48 25.14070 55.56644 2997 ft 172 kts 296°
2026-05-07 09:48 25.14698 55.55504 2993 ft 173 kts 296°
2026-05-07 09:48 25.15333 55.54395 2952 ft 170 kts 297°
2026-05-07 09:49 25.15971 55.53272 2761 ft 176 kts 296°
2026-05-07 09:49 25.16628 55.52065 2542 ft 190 kts 296°
2026-05-07 09:49 25.17318 55.50838 2274 ft 180 kts 297°
2026-05-07 09:49 25.17926 55.49748 2051 ft 155 kts 295°
2026-05-07 09:50 25.18463 55.48778 1866 ft 140 kts 295°
2026-05-07 09:50 25.18934 55.47927 1705 ft 125 kts 295°
2026-05-07 09:50 25.19369 55.47141 1564 ft 114 kts 294°
2026-05-07 09:50 25.19767 55.46415 1406 ft 112 kts 294°
2026-05-07 09:51 25.20171 55.45683 1246 ft 113 kts 294°
2026-05-07 09:51 25.20586 55.44931 1163 ft 116 kts 295°
2026-05-07 09:51 25.21007 55.44169 998 ft 118 kts 295°
2026-05-07 09:51 25.21423 55.43424 919 ft 110 kts 294°
2026-05-07 09:52 25.21802 55.42735 793 ft 108 kts 294°
2026-05-07 09:52 25.22173 55.42059 611 ft 115 kts 297°
2026-05-07 09:52 25.22538 55.41406 560 ft 114 kts 297°
2026-05-07 09:52 25.22948 55.40659 418 ft 114 kts 297°
2026-05-07 09:53 25.23374 55.39893 193 ft 119 kts 298°
2026-05-07 09:53 25.23798 55.39143 83 ft 111 kts 297°
2026-05-07 09:53 25.24055 55.38655 60 ft 23 kts 304°
2026-05-07 09:53 25.24093 55.38591 58 ft 30 kts 300°
2026-05-07 09:54 25.24221 55.38359 51 ft 39 kts 301°
2026-05-07 09:54 25.24310 55.38185 48 ft 15 kts 295°
2026-05-07 09:54 25.24270 55.38093 45 ft 11 kts 213°
2026-05-07 09:54 25.24266 55.38090 46 ft 0 kts 213°
2026-05-07 09:55 25.24223 55.38052 46 ft 11 kts 235°
2026-05-07 09:56 25.24242 55.37965 46 ft 14 kts 305°
2026-05-07 09:56 25.24297 55.37863 42 ft 17 kts 301°
2026-05-07 09:56 25.24366 55.37740 39 ft 20 kts 300°
2026-05-07 09:56 25.24444 55.37599 39 ft 23 kts 302°
2026-05-07 09:57 25.24530 55.37442 35 ft 25 kts 302°
2026-05-07 09:57 25.24626 55.37272 31 ft 27 kts 301°
2026-05-07 09:57 25.24727 55.37087 27 ft 29 kts 301°
2026-05-07 09:57 25.24806 55.36942 25 ft 21 kts 300°
2026-05-07 09:58 25.24865 55.36786 26 ft 23 kts 280°
2026-05-07 09:58 25.24919 55.36621 23 ft 23 kts 304°
2026-05-07 09:58 25.25002 55.36469 25 ft 23 kts 301°
2026-05-07 09:58 25.25077 55.36330 22 ft 21 kts 300°
2026-05-07 09:59 25.25158 55.36187 23 ft 22 kts 301°
2026-05-07 09:59 25.25240 55.36038 21 ft 23 kts 302°
2026-05-07 09:59 25.25327 55.35884 21 ft 24 kts 301°
2026-05-07 09:59 25.25412 55.35724 21 ft 25 kts 299°
2026-05-07 10:00 25.25506 55.35562 21 ft 25 kts 302°
2026-05-07 10:00 25.25599 55.35393 21 ft 26 kts 301°
2026-05-07 10:00 25.25690 55.35225 22 ft 25 kts 300°
2026-05-07 10:00 25.25781 55.35060 20 ft 25 kts 300°
2026-05-07 10:01 25.25872 55.34891 20 ft 26 kts 300°
2026-05-07 10:01 25.25966 55.34721 21 ft 26 kts 299°
2026-05-07 10:01 25.26050 55.34573 20 ft 17 kts 302°
2026-05-07 10:01 25.26097 55.34515 20 ft 7 kts
2026-05-07 10:02 25.26150 55.34543 20 ft 11 kts 35°
2026-05-07 10:02 25.26179 55.34563 19 ft 1 kts 31°
2026-05-07 10:02 25.26181 55.34565 21 ft 0 kts 30°